Location: B�hl
(48.6968°N, 8.1352°E)
Time: 10:55:01
(UTC+00:00)

Cosmos 990 Rocket - Pass Details

Date: 08 March 2021
Orbit: 746 x 769 km, 74.0° (Epoch: 10 April)

Event Time Altitude Azimuth Distance (km) Brightness Sun altitude
Rises 18:49:42 0° 340° (NNW) 3,214 7.7 -15.2°
Reaches altitude 10° 18:52:10 10° 346° (NNW) 2,289 6.8 -15.6°
Maximum altitude 18:57:10 47° 61° (ENE) 995 4.3 -16.4°
Enters shadow 18:59:38 27° 119° (ESE) 1,423 4.8 -16.8°
